This demonstration page uses our WeatherBlox Daily Observations layout. Learn more.

Left ArrowRight Arrow

Hourly Observations for August 7, 2015

Temp ( °F °C ) Dew Point ( °F °C ) Humidity (%) Winds ( mph kmh ) Pressure ( in mb ) Visibility ( mi km ) Precip ( " mm )
12:53 am 00:53 Clear 80 26.7 54 12.2 41 41 N 3 6 29.75 1007 10 16 0.00 0.00
1:53 am 01:53 Clear 77 25 54 12.2 45 45 Calm 29.76 1008 10 16 0.00 0.00
2:53 am 02:53 Clear 76 24.4 52 11.1 43 43 NW 5 7 29.76 1008 9 14 0.00 0.00
3:53 am 03:53 Clear 75 23.9 52 11.1 45 45 NE 3 6 29.79 1009 7 11 0.00 0.00
4:53 am 04:53 Hazy 75 23.9 51 10.6 43 43 NNW 6 9 29.78 1009 6 10 0.00 0.00
5:53 am 05:53 Clear 73 22.8 52 11.1 48 48 ESE 3 6 29.80 1009 7 11 0.00 0.00
6:53 am 06:53 Sunny 73 22.8 51 10.6 46 46 Calm 29.81 1010 7 11 0.00 0.00
7:53 am 07:53 Hazy 73 22.8 53 11.7 50 50 Calm 29.83 1010 5 8 0.00 0.00
8:53 am 08:53 Sunny 78 25.6 52 11.1 40 40 N 5 7 29.83 1010 7 11 0.00 0.00
9:53 am 09:53 Sunny 82 27.8 53 11.7 37 37 Calm 29.82 1010 10 16 0.00 0.00
10:53 am 10:53 Sunny 87 30.6 53 11.7 31 31 W 7 11 29.80 1009 109 175 0.00 0.00
11:53 am 11:53 Sunny 90 32.2 50 10 25 25 ESE 7 11 29.78 1009 10 16 0.00 0.00
12:53 pm 12:53 Sunny 92 33.3 48 8.9 22 22 SSE 8 13 29.77 1008 10 16 0.00 0.00
1:53 pm 13:53 Sunny 93 33.9 47 8.3 21 21 undefined N/A 29.76 1008 10 16 0.00 0.00
2:53 pm 14:53 Sunny 96 35.6 47 8.3 19 19 SE 13 20 29.74 1007 10 16 0.00 0.00
3:53 pm 15:53 Sunny 97 36.1 46 7.8 17 17 S 15 24 29.71 1006 10 16 0.00 0.00
4:53 pm 16:53 Sunny 96 35.6 45 7.2 17 17 S 12 19 29.69 1006 10 16 0.00 0.00
5:53 pm 17:53 Sunny 95 35 47 8.3 19 19 SSE 14 22 29.69 1005 10 16 0.00 0.00
6:53 pm 18:53 Sunny 92 33.3 50 10 24 24 SSE 13 20 29.70 1006 10 16 0.00 0.00
7:53 pm 19:53 Mostly Cloudy 89 31.7 52 11.1 28 28 SSE 9 15 29.72 1007 10 16 0.00 0.00
8:53 pm 20:53 Mostly Cloudy 87 30.6 54 12.2 32 32 S 7 11 29.73 1007 10 16 0.00 0.00
9:53 pm 21:53 Partly Cloudy 87 30.6 52 11.1 30 30 S 8 13 29.76 1008 10 16 0.00 0.00
10:53 pm 22:53 Cloudy 85 29.4 51 10.6 31 31 SW 6 9 29.76 1008 10 16 0.00 0.00
11:53 pm 23:53 Cloudy 82 27.8 52 11.1 35 35 N 6 9 29.78 1008 10 16 0.00 0.00

Powered by AerisWeather